This demonstration page uses our WeatherBlox Daily Observations layout. Learn more.

Left ArrowRight Arrow

Hourly Observations for November 28, 2021

Temp ( °F °C ) Dew Point ( °F °C ) Humidity (%) Winds ( mph kmh ) Pressure ( in mb ) Visibility ( mi km ) Precip ( " mm )
12:53 am 00:53 Clear 48 8.9 40 4.4 74 74 N 8 13 30.13 1020 10 16 0.00 0.00
1:53 am 01:53 Clear 47 8.3 39 3.9 74 74 N 10 17 30.14 1021 10 16 0.00 0.00
2:53 am 02:53 Clear 44 6.7 36 2.2 73 73 NNW 9 15 30.17 1022 10 16 0.00 0.00
3:53 am 03:53 Clear 43 6.1 31 -0.6 63 63 N 10 17 30.19 1022 10 16 0.00 0.00
4:53 am 04:53 Clear 40 4.4 29 -1.7 65 65 N 8 13 30.22 1024 10 16 0.00 0.00
5:53 am 05:53 Clear 41 5 27 -2.8 57 57 N 10 17 30.24 1024 10 16 0.00 0.00
6:53 am 06:53 Clear 39 3.9 27 -2.8 62 62 N 8 13 30.27 1025 10 16 0.00 0.00
7:53 am 07:53 Sunny 37 2.8 27 -2.8 67 67 NNW 8 13 30.31 1026 10 16 0.00 0.00
8:53 am 08:53 Sunny 45 7.2 29 -1.7 54 54 N 7 11 30.32 1027 10 16 0.00 0.00
9:53 am 09:53 Sunny 52 11.1 29 -1.7 41 41 NNE 8 13 30.32 1027 10 16 0.00 0.00
10:53 am 10:53 Sunny 57 13.9 29 -1.7 34 34 E 8 13 30.31 1027 10 16 0.00 0.00
11:53 am 11:53 Sunny 60 15.6 29 -1.7 31 31 ESE 8 13 30.29 1026 10 16 0.00 0.00
12:53 pm 12:53 Sunny 61 16.1 28 -2.2 29 29 SE 5 7 30.26 1025 10 16 0.00 0.00
1:53 pm 13:53 Sunny 63 17.2 27 -2.8 26 26 SW 3 6 30.22 1023 10 16 0.00 0.00
2:53 pm 14:53 Sunny 64 17.8 27 -2.8 25 25 VRB 3 6 30.20 1023 10 16 0.00 0.00
3:53 pm 15:53 Sunny 65 18.3 26 -3.3 23 23 S 5 7 30.19 1023 10 16 0.00 0.00
4:53 pm 16:53 Sunny 64 17.8 27 -2.8 25 25 SSW 8 13 30.19 1023 10 16 0.00 0.00
5:53 pm 17:53 Clear 59 15 27 -2.8 29 29 SSW 7 11 30.20 1023 10 16 0.00 0.00
6:53 pm 18:53 Clear 53 11.7 26 -3.3 35 35 SW 9 15 30.23 1024 10 16 0.00 0.00
7:53 pm 19:53 Clear 49 9.4 26 -3.3 41 41 WSW 9 15 30.26 1025 10 16 0.00 0.00
8:53 pm 20:53 Clear 47 8.3 26 -3.3 44 44 SW 9 15 30.24 1024 10 16 0.00 0.00
9:53 pm 21:53 Clear 48 8.9 26 -3.3 42 42 SSW 8 13 30.23 1024 10 16 0.00 0.00
10:53 pm 22:53 Clear 45 7.2 24 -4.4 44 44 SSW 5 7 30.23 1024 10 16 0.00 0.00
11:53 pm 23:53 Clear 44 6.7 24 -4.4 45 45 S 5 7 30.22 1023 10 16 0.00 0.00

Powered by AerisWeather